Flag for U.S.A. Weather past 2 weeks in Santa Fe, New Mexico, U.S.A.

Now
69 °F

Sunny.


Feels Like: 69 °F
Forecast: 60 / 74 °F
Wind: 6 mph from Southwest

Location: Santa Fe County Municipal Airport

Current Time: Jul 28, 2014 at 8:41:35 PM

Latest Report: Jul 28, 2014 at 7:53 PM


Visibility: 10 mi

Pressure: 30.10 "Hg

Humidity: 57%

Dew point: 53 °F

Location of Santa FeLocation

Historic Weather in Santa Fe — Graph

°F

Santa Fe temperature yesterday

Maximum temperature yesterday: 88 °F (at 12:53 PM)
Minimum temperature yesterday: 63 °F (at 6:53 AM)
Average temperature yesterday: 72 °F

Past Weeks' High & Low Weather Summary

 TemperatureHumidityPressure
High95 °F (Jul 26, 4:53 PM)97% (Jul 15, 4:04 AM)30.41 "Hg (Jul 15, 4:04 AM)
Low58 °F (Jul 15, 4:04 AM)13% (Jul 26, 5:53 PM)29.75 "Hg (Jul 17, 4:53 PM)
Average72 °F51%29.96 "Hg
* Reported Jul 13 6:53 PM — Jul 28 6:53 PM, Santa Fe, Weather by CustomWeather, © 2014

Note: Actual official high and low records may vary slightly from our data, if they occured in-between our weather recording intervals... More about our weather records

Advertising

Santa Fe weather history for previous 24 hours

 ConditionsComfort  
Time TempWeatherWind HumidityBarometerVisibility
6:53 PM
Jul 28
71 °FSunny.10 mph57%30.09 "Hg10 mi
5:53 PM79 °FSunny.23 mph35%30.04 "Hg10 mi
4:53 PM80 °FSunny.10 mph32%30.05 "Hg10 mi
3:53 PM78 °FSunny.10 mph40%30.08 "Hg10 mi
2:53 PM73 °FOvercast.12 mph57%30.12 "Hg10 mi
1:53 PM77 °FPartly sunny.9 mph47%30.10 "Hg10 mi
12:53 PM77 °FPassing clouds.12 mph47%30.13 "Hg10 mi
11:53 AM75 °FPassing clouds.8 mph50%30.16 "Hg10 mi
10:53 AM72 °FSunny.7 mph55%30.19 "Hg10 mi
9:53 AM69 °FSunny.7 mph59%30.21 "Hg10 mi
8:53 AM66 °FOvercast.7 mph68%30.23 "Hg10 mi
7:53 AM61 °FOvercast.3 mph87%30.23 "Hg10 mi
6:53 AM59 °FPassing clouds.6 mph90%30.20 "Hg10 mi
5:53 AM60 °FClear.8 mph86%30.17 "Hg10 mi
4:53 AM60 °FClear.15 mph86%30.14 "Hg10 mi
3:53 AM60 °FClear.15 mph86%30.15 "Hg10 mi
2:53 AM61 °FClear.15 mph83%30.17 "Hg10 mi
1:53 AM62 °FPassing clouds.18 mph80%30.14 "Hg10 mi
12:53 AM63 °FClear.18 mph78%30.09 "Hg10 mi
11:53 PM
Jul 27
64 °FPassing clouds.14 mph81%30.10 "Hg10 mi
10:53 PM64 °FThundershowers. Mostly cloudy.14 mph75%30.08 "Hg10 mi
9:53 PM65 °FThunderstorms. Passing clouds.8 mph70%30.08 "Hg10 mi
8:53 PM65 °FThunderstorms. Cloudy.15 mph70%30.05 "Hg10 mi
Weather by CustomWeather, © 2014

See weather overviewHow to use our weather pages